Activity Log for Feb, 26 2019

Back to Activity Log Search


Incident Time Nature Address
19A008230 00:49:05 66 MENTALLY ILL 75XX WINCHESTER RD
19A008231 01:22:52 11 PICK UP PRIS 8XX E LINCOLN HWY
19A008232 01:38:49 123 LEO/CEDARVI 150XX SR 1
19A008233 01:41:01 108 FOLLOWUP XX E MAIN ST
19A008234 01:49:19 122 HUNTERTOWN 150XX LIMA RD
19A008235 02:17:03 124 MONROEVILLE 2XX SOUTH ST
19A008236 02:21:42 15 ASSIST N WESTCOUNTY LINE RD & W US 30
19A008237 03:12:49 129 ACACIA PASSAGE & WHEELOCK RD
19A008238 03:40:45 40A AUDIBLE 23XX SOUTHYARD CT
19A008239 03:53:19 129 2XX S WEBSTER RD
19A008240 05:16:41 40A AUDIBLE 123XX HUMMINGBIRD CV
19A008241 06:29:29 36 OCCUPIED VEH 5XX I 469 SB
19A008243 07:08:11 43 DISTURBANCE 75XX WINCHESTER RD
19A008244 07:12:56 30 TRAFFIC STOP 16XX I 469 NB
19A008245 07:22:40 34 TRAFF HAZARD COLDWATER RD & PERRY LAKE DR
19A008246 07:24:23 33 DISABLED VEH W JEFFERSON BLVD & RECKEWEG RD
19A008247 07:35:03 27 RECKLESS DRI SR 3 & CARROLL RD
19A008248 07:52:50 120 GRABILL 135XX STATE ST
19A008249 07:53:40 16 PICK UP ITEM 1XX E SUPERIOR ST
19A008250 08:09:08 17 MOTOR CHECK 98XX GARMAN RD
19A008251 08:23:04 46 DOMESTIC 149XX MERCURY LN
19A008252 08:34:42 11 PICK UP PRIS 27XX MAUMEE AVE
19A008253 08:44:31 63Z ZACH CHECK 151XX HAND RD
19A008254 08:49:35 80P Serving PO 19XX FOX POINT TRL
19A008255 08:54:41 121 WOODBURN 220XX MAIN ST
19A008256 08:55:22 35 PARKED VEHIC 72XX VICKSBURG PIKE
19A008257 08:57:43 46 DOMESTIC 103XX TAIRN DR
19A008258 09:01:51 80P Serving PO 2XX THIRD ST
19A008259 09:15:45 22I JUV INVEST 88XX MAYHEW RD
19A008260 09:26:58 129 4XX S CALHOUN ST
19A008261 09:35:17 80P Serving PO 21XX BELLEVUE DR
19A008262 09:36:13 33 DISABLED VEH I 469 AND US 24
19A008263 09:39:59 80P Serving PO 7XX W COLISEUM BLVD
19A008264 09:44:38 80P Serving PO 22XX OTSEGO DR
19A008265 09:47:42 14S SERVING WAR 54XX OLD MAUMEE RD LOT 8
19A008266 09:52:56 14S SERVING WAR 1XX E SUPERIOR ST
19A008267 09:55:10 80E EVICTION 31XX S HARRISON ST
19A008268 09:56:03 63 CONTACT 16XX FREEDOM DR
19A008269 10:08:29 14S SERVING WAR 34XX HOLTON AVE
19A008270 10:11:06 80P Serving PO 75XX GLENOAK PKWY
19A008271 10:18:43 80E EVICTION 7XX MAIN ST
19A008272 10:20:59 80P Serving PO 5XX CONSTANCE AVE
19A008273 10:27:05 66V MENTAL VIOL 37XX CARROLL RD
19A008274 10:32:48 911 HANG UP 30XX LAUREL SPRINGS DR
19A008275 10:36:49 14S SERVING WAR 46XX E WASHINGTON BLVD
19A008276 10:38:33 14S SERVING WAR 20XX LAWNDALE DR
19A008277 10:42:16 14S SERVING WAR 7XX S CALHOUN ST
19A008278 10:42:45 40A AUDIBLE 106XX WALNUT ST
19A008279 10:49:44 80E EVICTION 58XX MEADOWBROOK DR
19A008280 10:51:28 33 DISABLED VEH SR 3 & W SHOAFF RD
19A008281 10:54:59 51 THEFT 123XX SHEARWATER RUN
19A008282 11:03:44 80P Serving PO 13XX DELAWARE AVE
19A008283 11:04:41 15 ASSIST 25XX S WESTHAMILTON RD
19A008284 11:06:09 14S SERVING WAR 2XX W COLISEUM BLVD
19A008285 11:06:21 63 CONTACT 61XX WESTHILLS RD
19A008286 11:12:24 14S SERVING WAR 11XX HARTZELL ST
19A008287 11:16:17 80E EVICTION 73XX DEERPOINTE CV
19A008288 11:20:24 911 HANG UP 90XX ST JOE RD
19A008289 11:26:00 911 HANG UP 107XX S US 27 LOT 103
19A008290 12:07:03 63 CONTACT 61XX E TILLMAN RD
19A008291 12:21:05 22I JUV INVEST 43XX HOMESTEAD RD
19A008292 12:27:37 63Z ZACH CHECK 34XX E STATE BLVD
19A008293 12:37:12 99 NARCOTICS 146XX AMSTUTZ RD
19A008294 12:41:16 48,36 142XX MCDUFFEE RD
19A008295 12:49:42 48 SUSPICIOUS US 24 AND BRUICK RD
19A008297 12:58:56 34 TRAFF HAZARD 306XX I 69 SB
19A008296 12:58:57 102 THREATS 172XX WOODBURN RD
19A008298 13:08:49 63Z ZACH CHECK 27XX PRAIRIE GROVE DR
19A008299 13:20:43 63Z ZACH CHECK 25XX CORVALIS AVE
19A008300 13:24:59 30 TRAFFIC STOP COLDWATER RD & E COOK RD
19A008301 13:28:38 14S SERVING WAR 82XX BRIDGEWAY LN UNIT 3C
19A008302 13:29:14 80P Serving PO 48XX S ANTHONY BLVD
19A008303 13:31:26 63Z ZACH CHECK 64XX S HARRISON ST
19A008304 13:35:22 63Z ZACH CHECK 51XX OLD MAYSVILLE RD
19A008305 13:44:45 14S SERVING WAR 6XX GREENLAWN AVE
19A008306 13:45:37 63Z ZACH CHECK 54XX HAMPSTEAD LN
19A008307 13:47:13 80P Serving PO 48XX HOLTON AVE
19A008308 13:58:11 14S SERVING WAR 52XX MCCLELLAN ST
19A008309 13:58:55 63Z ZACH CHECK 75XX BLUFFTON RD LOT 46
19A008310 14:01:11 14S SERVING WAR 13XX BETHANY LN
19A008311 14:01:52 129 129XX CORBIN RD
19A008312 14:05:26 14S SERVING WAR 26XX CENTRAL DR
19A008313 14:11:06 80E EVICTION 44XX SMITH ST
19A008314 14:14:45 14S SERVING WAR 16XX BOONE ST
19A008315 14:15:11 48 SUSPICIOUS 111XX SPRING POND CV
19A008316 14:26:07 30 TRAFFIC STOP WINTERS RD & ZUBRICK RD
19A008322 14:29:49 17 MOTOR CHECK 41XX PARK PLACE DR
19A008317 14:32:14 14S SERVING WAR 75XX BLUFFTON RD
19A008318 14:35:32 80E EVICTION 46XX GAYWOOD DR
19A008319 14:36:58 30 TRAFFIC STOP S LAFAYETTE ST & S HANNA ST
19A008320 14:37:46 14S SERVING WAR 15XX N ANTHONY BLVD
19A008321 14:43:01 14S SERVING WAR 28XX FOX AVE
19A008323 14:55:45 14S SERVING WAR 23XX N CLINTON ST
19A008324 14:56:56 80P Serving PO 63XX LIBERTY DR
19A008325 14:57:20 30 TRAFFIC STOP W WASHINGTON CENTER RD & TANAGER B
19A008326 15:00:53 911 HANG UP 65XX WAYNE TRACE
19A008328 15:01:54 51,ATTEMPTED 207XX OLD 24
19A008327 15:02:37 14S SERVING WAR 31XX WELLS ST
19A008329 15:06:29 30 TRAFFIC STOP ILLINOIS RD & S SCOTT RD
19A008330 15:08:17 80E EVICTION 74XX COLD SPRINGS BLVD
19A008331 15:12:31 25 PD ACCIDENT AMSTUTZ RD & LAKE SHORE DR
19A008332 15:13:19 15 ASSIST 132XX WHISTLER HILL PL
19A008333 15:18:11 26 PI ACCIDENT DOTY RD & MILAN CENTER RD
19A008334 15:21:26 123 LEO/CEDARVI 150XX SR 1
19A008335 15:22:59 80E EVICTION 6XX WALLEN HILLS DR
19A008336 15:24:45 80P Serving PO 63XX WOOD RIM RUN
19A008337 15:25:17 14S SERVING WAR 3XX E WASHINGTON CENTER RD
19A008338 15:28:11 14S SERVING WAR 26XX SOUTHWAYNE AVE
19A008339 15:29:00 25 PD ACCIDENT MAPLECREST RD & ST JOE RD
19A008341 15:43:38 46 DOMESTIC 188XX MCNABB RD
19A008340 15:44:54 55 FIGHT 37XX CARROLL RD
19A008348 15:46:56 17 MOTOR CHECK 100XX WHEATFIELD LN
19A008342 15:47:18 14S SERVING WAR 8XX LAKE AVE
19A008343 15:48:00 14S SERVING WAR 4XX GREENWOOD AVE
19A008344 15:50:19 33,34 CARROLL RD & SR 3
19A008345 15:58:13 30 TRAFFIC STOP ILLINOIS RD & S SCOTT RD
19A008346 16:01:34 14S SERVING WAR 3XX W OAKDALE DR
19A008347 16:07:20 122 HUNTERTOWN 150XX LIMA RD
19A008349 16:26:25 48,36 OLD 24 & N WEBSTER RD
19A008350 16:28:37 30 TRAFFIC STOP STEINMAN DR & W SR 14
19A008351 16:29:03 14S SERVING WAR 2XX W DEWALD ST
19A008352 16:33:26 111D DOG 191XX MAPLES RD
19A008353 16:42:42 14S SERVING WAR 11XX S MONROE ST
19A008354 16:45:42 123 LEO/CEDARVI 150XX SR 1
19A008355 17:03:56 48,35 W NORTHCOUNTY LINE RD & WESLEY CHA
19A008356 17:10:59 30 TRAFFIC STOP N CLINTON ST & E FOURTH ST
19A008357 17:15:24 14S SERVING WAR 3XX W SUPERIOR ST
19A008358 17:27:45 27 RECKLESS DRI 321XX I 69 SB
19A008359 17:47:03 14S SERVING WAR 29XX GOSHEN RD
19A008361 17:58:07 EMS 101XX STUCKEY LN
19A008360 17:58:21 63Z ZACH CHECK 64XX S HARRISON ST
19A008362 18:12:55 63Z ZACH CHECK 25XX CORVALIS AVE
19A008363 18:19:27 96JO 57XX ENGLE RD
19A008364 18:45:22 46 DOMESTIC W STATE BLVD & LEESBURG RD
19A008369 18:49:39 58 SHOOTING SMITH ST & SENATE AVE
19A008365 18:54:35 14S SERVING WAR 15XX N ANTHONY BLVD
19A008366 18:55:40 30 TRAFFIC STOP COVENTRY LN & COVENTRY PKWY
19A008367 18:57:15 14S SERVING WAR 26XX TIMBERS DR
19A008384 18:57:28 27 RECKLESS DRI BLUFFTON RD & W YODER RD
19A008368 19:06:24 30 TRAFFIC STOP WINTERS RD & LOWER HUNTINGTON RD
19A008370 19:18:13 14S SERVING WAR 30XX SCHELE AVE
19A008371 19:23:35 14S SERVING WAR 22XX EDSALL AVE
19A008372 19:24:28 46,62 107XX S US 27 LOT 75
19A008373 19:27:11 48,36 W YODER RD & BLUFFTON RD
19A008374 19:37:30 14S SERVING WAR 7XX WAGNER ST
19A008375 19:52:54 30 TRAFFIC STOP 73XX YELLOW RIVER RD
19A008376 19:58:13 108 FOLLOWUP XX E MAIN ST
19A008377 20:02:45 14S SERVING WAR 6XX E COLISEUM BLVD
19A008378 20:07:09 14S SERVING WAR 3XX W SUPERIOR ST
19A008379 20:20:34 30 TRAFFIC STOP TRIER RD & HOBSON RD
19A008381 20:30:39 22I JUV INVEST 96XX SQUIRREL TAIL RUN APT 102
19A008380 20:31:12 14S SERVING WAR 49XX MAPLE RIDGE DR
19A008382 20:45:21 14S SERVING WAR 1XX CHRISREN CV
19A008383 20:51:40 14S SERVING WAR 45XX MAPLECREST RD
19A008385 21:02:05 25HS HIT SKIP N CLINTON ST & MAYHEW RD
19A008388 21:45:52 48 SUSPICIOUS 93XX HEMPHILL DR
19A008386 21:48:30 27 RECKLESS DRI 306XX I 69 SB
19A008387 21:53:06 30 TRAFFIC STOP 301XX I 69 SB
19A008389 22:02:54 33 DISABLED VEH 321XX I 69 SB
19A008390 22:09:23 53 ARMED ROB 14XX ST JOSEPH BLVD
19A008391 22:23:47 30 TRAFFIC STOP BLUFFTON RD & AIRPORT EXPRESSWAY
19A008392 22:34:00 30 TRAFFIC STOP AIRPORT EXPRESSWAY & COVERDALE RD
19A008393 22:53:05 30 TRAFFIC STOP AIRPORT EXPRESSWAY & COVERDALE RD
19A008394 22:59:44 48,36 BEVERLY ST & PRIZE ST
19A008395 23:05:58 25 PD ACCIDENT LEESBURG RD & FLAUGH RD
19A008396 23:08:53 46 DOMESTIC 9XX STEINMAN DR
19A008397 23:16:59 30 TRAFFIC STOP E LINCOLN HWY & STURM AVE
19A008398 23:30:19 46 DOMESTIC 142XX MAIN ST
19A008399 23:44:05 120 GRABILL 135XX STATE ST
19A008400 23:53:16 35 PARKED VEHIC COVINGTON RD & S WESTHAMILTON RD
19A008401 23:57:01 46,96 15XX WHITE CORAL CT